Theta_e
322 323 323 323 325 325 326 326 326 327 327 327 328 328 329 328 329 329 329 330 330 329 334 340 345 346 346 348 350 352 352 352 351 351 349 346 344 344 342 341 339 337 336 335
325 323 324 324 324 325 326 325 325 326 326 326 327 327 327 329 329 328 329 330 330 330 333 340 346 349 347 347 348 350 352 353 351 351 349 347 344 343 342 341 338 337 335 334
327 326 324 323 324 324 325 325 326 326 326 326 326 326 328 329 328 329 330 334 333 332 335 346 350 352 352 351 350 349 348 351 346 348 348 346 345 344 343 341 338 335 334 334
326 325 324 323 323 324 325 325 325 325 325 325 328 327 330 330 330 331 332 335 334 337 338 347 349 350 352 351 351 351 351 350 344 343 347 347 345 344 343 341 338 335 335 334
324 324 324 325 325 324 324 325 325 325 326 327 327 329 330 331 330 330 331 335 337 336 338 340 347 348 350 350 351 351 350 343 347 345 347 346 345 344 343 341 337 334 331 330
324 324 324 325 325 324 325 325 326 326 327 327 327 328 328 330 331 331 332 335 339 339 340 342 346 348 349 349 349 350 349 347 345 344 346 344 345 344 341 337 335 331 328 323
324 323 324 323 325 326 325 326 328 328 328 327 327 328 328 330 330 330 330 329 333 338 340 343 346 348 346 346 348 348 348 348 348 347 346 345 343 340 339 335 332 328 323 322
326 326 325 324 324 326 327 327 328 330 329 329 329 328 329 329 329 329 329 329 330 333 336 340 346 345 346 347 347 347 348 347 347 345 343 341 340 338 335 330 326 324 321 320
327 326 324 323 323 324 324 327 327 328 328 329 330 331 330 330 330 328 328 331 332 334 338 341 345 345 345 347 347 346 346 344 343 340 340 338 336 331 327 325 322 322 320 318
326 328 325 324 324 323 324 325 327 327 329 330 329 329 329 330 330 329 330 330 330 338 341 342 345 345 346 347 346 345 344 342 340 338 335 333 328 327 324 323 322 321 318 315
325 327 328 325 325 325 326 323 325 328 329 331 332 330 331 331 330 330 330 329 329 335 342 343 346 345 345 345 343 343 341 339 337 334 331 327 326 324 323 323 322 319 317 316
327 329 329 328 327 326 325 326 328 328 329 329 328 328 329 329 329 329 328 328 328 335 342 344 345 344 345 344 342 341 339 336 333 330 327 326 324 323 323 322 320 319 318 317
329 328 330 330 329 328 328 327 327 327 330 330 331 330 329 328 328 328 328 327 327 334 341 343 345 344 345 343 341 339 337 334 330 328 326 326 323 323 322 321 320 319 318 317
323 329 331 330 330 330 331 329 328 329 330 330 330 330 329 329 329 329 329 328 327 330 339 343 344 343 345 343 340 337 334 331 329 327 326 324 323 323 323 322 320 318 317 316
324 328 328 328 327 326 327 327 328 329 329 331 331 331 331 331 331 330 329 329 329 329 337 343 344 344 344 342 339 336 333 330 328 326 325 326 325 324 323 321 319 318 317 315
323 326 324 325 325 326 326 325 325 325 326 326 327 327 327 327 327 328 329 330 330 329 333 340 345 344 343 341 339 335 332 329 327 326 326 326 325 323 322 320 319 318 316 315
323 324 324 323 322 323 325 324 324 325 325 326 327 327 327 328 328 329 331 334 332 330 330 338 342 346 344 342 338 334 331 328 327 326 326 325 324 322 320 319 318 315 315 315
321 322 322 323 322 324 323 324 324 324 324 326 326 326 326 326 326 329 335 337 338 339 333 336 341 346 344 341 336 333 330 328 327 327 326 324 322 321 319 317 315 316 316 315
318 321 321 321 322 322 322 323 323 324 324 326 329 328 329 330 329 331 332 332 336 338 338 338 341 344 344 339 334 331 329 327 327 327 326 323 321 319 318 315 315 316 316 315
318 318 320 321 321 321 322 322 323 324 324 328 328 329 329 330 330 331 331 331 334 337 339 340 342 344 342 337 332 330 329 328 327 327 324 321 319 317 314 315 316 315 314 313
321 319 319 319 320 319 320 321 322 324 332 327 327 329 329 331 329 328 329 330 333 336 338 339 341 343 339 335 331 331 329 328 328 325 322 319 317 314 315 315 314 313 312 312
321 323 323 321 320 319 318 319 322 330 326 323 322 325 324 322 322 323 325 328 331 335 337 338 341 339 337 332 330 331 329 328 324 321 319 316 315 314 313 313 312 312 312 313
318 318 321 321 321 321 324 326 324 321 321 319 321 322 321 319 319 320 321 326 330 334 336 337 337 336 333 331 331 329 328 325 321 319 316 315 314 313 312 312 313 312 312 311
318 317 319 321 321 321 321 321 320 319 317 317 318 318 317 317 318 318 320 322 329 332 335 335 333 332 331 329 329 328 325 323 319 317 316 315 314 312 312 312 312 311 310 310
314 316 317 317 316 316 316 316 315 315 314 314 314 314 315 316 317 319 320 321 327 332 333 333 331 330 329 328 327 324 319 316 316 315 315 314 313 313 313 312 311 310 309 308
312 313 314 315 313 313 313 312 312 312 312 312 312 313 316 317 318 318 320 321 326 332 331 330 329 328 325 323 321 320 315 313 312 313 314 312 311 311 311 311 310 309 308 306
Wind_Speed
14 11 14 17 15 16 10 10 12 8 7 3 14 17 18 22 20 25 17 23 25 21 21 23 23 24 24 23 24 25 22 21 20 18 16 15 15 13 13 11 19 18 13 10
7 14 16 12 9 7 10 12 13 11 10 10 15 17 18 19 20 26 19 17 20 20 19 19 22 24 24 24 23 23 23 23 22 17 17 15 14 14 12 12 16 11 10 12
13 7 3 4 11 11 14 13 12 11 11 10 14 18 20 18 25 11 15 15 19 16 20 20 21 20 21 22 21 20 22 21 22 18 16 16 15 14 12 12 9 9 11 12
12 16 6 10 12 13 14 11 9 10 13 12 15 13 15 14 12 13 14 8 12 10 15 20 19 19 19 18 17 17 16 19 19 18 16 16 16 14 11 10 9 13 10 8
14 10 12 13 13 12 16 7 7 14 13 14 17 9 13 6 7 12 10 6 2 7 12 15 16 16 17 15 15 15 16 18 17 18 15 15 13 11 11 11 14 10 9 9
16 13 10 12 11 14 13 10 12 14 14 14 17 15 16 11 13 8 4 5 3 5 7 9 12 13 15 15 14 14 14 15 15 16 16 15 14 14 12 11 7 6 5 6
16 17 13 13 11 7 13 11 10 12 11 13 16 16 13 9 9 6 4 11 7 8 8 10 13 10 13 16 15 14 14 15 16 16 16 19 20 15 12 10 7 8 5 5
8 12 19 14 14 15 15 13 11 14 11 11 10 5 5 11 11 5 8 12 12 12 11 11 14 12 14 17 16 15 15 18 18 18 18 15 14 10 10 9 8 4 5 6
5 9 5 3 9 15 17 14 10 14 17 14 16 8 10 12 11 13 16 4 8 9 9 11 13 13 16 17 17 16 15 13 14 14 14 13 13 12 12 9 6 7 8 6
11 13 7 9 8 13 14 13 9 9 14 16 13 13 10 9 7 5 5 8 7 5 7 9 12 14 16 17 17 16 16 15 14 14 13 13 14 13 10 7 6 9 9 9
13 10 14 7 10 13 8 13 11 12 11 11 10 9 11 9 4 7 11 14 14 4 4 10 13 15 17 17 16 17 17 16 16 15 15 14 13 11 8 7 7 7 7 6
3 5 12 17 15 14 14 15 11 10 11 11 13 14 18 13 8 14 18 19 14 3 5 10 15 17 20 19 19 19 18 18 17 17 16 15 12 9 7 6 6 6 5 6
5 7 10 16 16 16 12 15 13 14 13 16 13 12 11 9 9 13 17 22 26 3 5 11 16 18 21 21 21 20 20 19 18 17 15 14 12 9 6 5 5 5 6 8
4 9 12 13 16 9 11 12 16 11 11 14 15 18 15 11 10 14 20 23 23 16 5 12 16 18 22 22 22 21 19 17 16 16 15 13 11 8 6 5 5 5 7 8
4 14 16 19 22 19 18 17 17 16 14 15 16 20 18 16 16 20 23 23 23 16 9 14 17 21 23 22 21 19 18 19 17 15 13 11 9 7 6 6 6 6 7 9
6 10 14 21 20 20 25 24 22 22 21 23 21 21 18 24 25 25 20 25 21 18 12 14 17 20 20 21 21 21 20 19 18 16 13 11 9 7 6 6 7 7 8 9
11 10 12 20 20 22 27 21 25 24 23 23 21 21 20 19 18 12 18 25 22 19 19 13 19 21 21 22 22 22 21 19 17 15 13 11 9 7 7 6 6 7 8 10
13 12 11 15 16 24 15 17 19 21 20 16 17 16 15 16 19 9 15 20 22 25 15 9 15 19 21 21 23 21 20 19 17 15 12 9 8 6 6 5 6 7 9 10
19 14 11 13 15 20 21 17 13 13 13 8 11 9 13 21 18 5 19 19 19 20 16 12 11 17 20 24 23 22 20 18 17 14 11 9 7 5 4 5 6 9 10 12
17 16 13 14 17 18 14 11 12 18 18 6 8 8 10 14 9 5 29 25 21 19 14 8 7 14 20 24 22 20 19 18 15 12 11 8 6 5 4 4 7 9 10 11
11 12 16 13 14 13 10 14 11 10 4 8 10 10 12 10 14 22 24 24 21 18 12 6 6 15 24 24 23 19 17 15 13 11 9 7 5 4 2 5 7 9 10 12
11 10 12 13 17 22 13 10 10 7 7 10 13 9 12 16 20 20 23 23 22 18 11 3 7 17 21 22 22 18 16 15 12 10 7 5 3 1 3 6 7 8 10 12
17 17 12 13 10 3 1 7 2 7 12 18 12 14 17 20 21 22 23 23 21 15 9 3 12 17 20 21 21 20 18 13 11 8 6 4 2 1 4 6 7 9 11 14
20 15 14 15 15 22 22 17 16 15 18 18 18 20 22 25 24 24 22 22 22 15 8 5 15 20 21 20 18 22 19 15 10 6 4 2 0 2 4 6 7 10 13 15
16 16 14 18 18 24 29 27 27 21 16 22 27 27 27 27 27 25 24 21 20 12 3 12 16 16 21 21 22 17 14 11 9 5 2 0 3 4 6 8 11 12 13 16
20 19 15 17 25 26 27 26 27 28 27 28 29 32 29 25 27 28 26 21 19 7 8 12 17 21 18 19 19 16 12 8 8 4 2 3 3 6 8 10 12 16 17 17
Wind_Direction
202 224 227 240 227 277 332 302 301 310 288 254 277 279 275 269 263 270 234 250 243 251 209 205 205 204 204 205 208 206 209 219 208 212 218 217 220 222 220 215 221 244 252 261
194 237 258 239 268 266 257 262 264 267 267 294 277 264 263 262 260 250 265 279 273 253 201 192 195 198 203 205 208 210 209 213 217 213 214 217 221 222 216 214 247 242 239 245
246 307 338 248 246 243 246 262 277 293 306 264 269 268 260 254 251 265 266 265 263 220 187 178 186 201 205 207 209 212 215 211 223 202 207 202 198 196 201 211 227 222 240 269
243 260 203 249 243 243 250 239 259 275 265 267 246 260 268 206 209 231 237 218 219 204 198 192 204 207 206 207 209 209 209 209 221 206 200 200 196 201 215 216 207 240 262 263
241 225 252 236 249 241 259 295 294 260 264 275 268 243 280 213 213 238 225 148 216 204 207 205 201 208 207 205 202 198 202 210 200 198 191 197 186 201 188 193 226 212 255 252
266 282 255 252 255 242 260 271 250 256 253 251 248 256 267 245 219 181 65 164 194 227 197 202 200 194 193 200 198 190 185 181 184 179 183 174 188 186 191 197 199 207 229 276
229 242 228 240 248 206 240 231 250 232 225 246 243 233 237 313 340 315 319 300 211 210 235 205 195 193 197 185 188 183 175 169 169 171 180 188 201 197 190 203 187 200 228 260
264 224 206 212 229 258 196 242 261 291 285 299 179 234 262 241 286 311 282 275 274 268 240 217 203 205 194 189 186 180 178 179 178 188 193 197 196 185 183 173 198 203 226 257
298 241 94 264 272 231 250 255 257 286 280 278 284 249 185 200 226 264 255 218 270 272 259 222 200 199 192 188 183 183 182 179 177 182 183 184 173 176 189 210 222 252 263 266
274 275 228 174 232 240 251 261 233 230 263 274 273 249 261 150 198 276 305 291 322 178 255 220 206 199 191 186 184 182 182 182 175 174 177 183 191 196 210 234 236 255 259 286
264 256 279 202 220 256 182 235 243 287 301 300 288 259 45 29 348 311 310 302 317 18 241 214 202 196 190 189 189 185 182 181 179 177 176 190 188 197 219 247 259 273 283 277
64 288 256 263 253 237 252 280 235 233 244 238 260 278 315 326 285 281 298 285 305 346 254 211 197 193 190 191 190 190 186 183 182 182 185 183 188 205 227 241 253 266 265 262
12 230 258 250 249 235 239 256 251 259 273 267 279 284 303 311 292 270 285 305 298 233 223 214 197 194 195 195 195 195 191 186 185 181 180 185 197 204 220 233 237 248 261 279
307 262 261 275 311 332 302 235 261 255 256 261 256 265 265 288 313 313 304 297 295 321 237 219 205 205 198 200 200 196 192 188 185 180 183 190 200 202 209 217 228 245 269 283
265 262 256 261 273 281 278 273 277 269 263 261 281 295 306 311 308 299 294 289 285 275 255 222 216 208 204 202 197 193 188 186 184 183 182 187 196 197 212 224 234 257 274 285
250 271 269 268 270 273 272 270 268 269 270 273 274 273 276 276 277 278 303 310 292 270 246 233 221 214 210 202 197 193 188 185 180 181 186 187 188 195 214 227 251 270 280 289
279 273 265 259 261 267 262 257 260 264 269 269 267 272 278 278 284 301 339 330 308 284 285 219 221 214 209 201 197 194 186 182 178 179 183 189 190 201 216 239 255 277 287 293
252 257 262 268 274 255 272 266 267 270 280 269 281 286 286 264 271 323 24 356 348 340 308 268 224 211 204 197 193 189 183 178 179 180 182 190 196 202 227 246 276 288 294 298
230 243 263 258 250 258 267 290 287 280 278 334 333 319 335 342 338 20 22 359 352 345 334 306 228 208 199 193 187 182 181 178 176 177 183 193 199 212 236 270 289 293 300 298
225 223 246 254 263 265 280 272 12 323 233 44 355 347 338 340 286 294 353 347 348 346 339 315 216 196 189 185 177 179 180 178 179 178 182 188 199 204 243 283 290 296 299 304
216 222 228 236 251 272 285 330 336 270 66 9 349 346 355 351 337 319 332 336 341 341 338 318 213 187 181 175 175 180 181 177 174 179 176 176 188 215 259 286 300 301 306 303
227 212 232 233 253 260 267 267 273 35 332 325 319 333 331 324 318 322 328 332 337 338 334 314 170 169 179 180 170 176 171 173 173 176 167 174 185 213 270 294 303 309 308 312
249 262 264 262 240 200 3 317 260 322 311 310 314 310 314 316 317 319 322 328 336 333 321 263 173 178 172 174 173 168 169 167 170 169 159 170 172 290 300 304 308 328 320 317
270 250 258 274 268 276 284 271 276 290 312 308 303 304 307 307 309 311 314 318 325 325 309 227 161 171 167 170 170 184 179 166 163 150 156 162 274 297 313 315 322 321 323 319
287 304 291 280 278 283 278 279 282 287 298 302 303 305 307 307 303 307 309 309 311 310 249 176 167 175 166 169 177 177 160 154 136 137 135 253 306 339 316 319 318 323 321 312
261 268 267 269 282 287 290 298 298 303 294 294 294 297 299 299 302 304 298 296 292 259 197 188 184 169 163 163 164 160 152 148 115 103 54 276 325 322 326 331 333 328 329 332